Stockton Lake Weather Center

Moon Phase Calendar



Stockton Lake Water Level
Online Cameras

 


      

Current Conditions in Stockton
6/19/2021 6:41:30 PM

87°F
Feels Like 100
Clouds
Humidity
76%
Pressure
29.74"
Wind
6.3 mph (WSW)
Dew Point
79°F
UV Index
1/10 (Low)
Visibility
6 mi

Hourly Forecast

Date & Time Sat, Jun 19
6:00 PM
Sat, Jun 19
7:00 PM
Sat, Jun 19
8:00 PM
Sat, Jun 19
9:00 PM
Sat, Jun 19
10:00 PM
Sat, Jun 19
11:00 PM
Sun, Jun 20
12:00 AM
Sun, Jun 20
1:00 AM
Sun, Jun 20
2:00 AM
Sun, Jun 20
3:00 AM
Sun, Jun 20
4:00 AM
Sun, Jun 20
5:00 AM
Sun, Jun 20
6:00 AM
Sun, Jun 20
7:00 AM
Sun, Jun 20
8:00 AM
Sun, Jun 20
9:00 AM
Sun, Jun 20
10:00 AM
Sun, Jun 20
11:00 AM
Sun, Jun 20
12:00 PM
Sun, Jun 20
1:00 PM
Sun, Jun 20
2:00 PM
Sun, Jun 20
3:00 PM
Sun, Jun 20
4:00 PM
Sun, Jun 20
5:00 PM
Sun, Jun 20
6:00 PM
Sun, Jun 20
7:00 PM
Sun, Jun 20
8:00 PM
Sun, Jun 20
9:00 PM
Sun, Jun 20
10:00 PM
Sun, Jun 20
11:00 PM
Mon, Jun 21
12:00 AM
Mon, Jun 21
1:00 AM
Mon, Jun 21
2:00 AM
Mon, Jun 21
3:00 AM
Mon, Jun 21
4:00 AM
Mon, Jun 21
5:00 AM
Mon, Jun 21
6:00 AM
Mon, Jun 21
7:00 AM
Mon, Jun 21
8:00 AM
Mon, Jun 21
9:00 AM
Mon, Jun 21
10:00 AM
Mon, Jun 21
11:00 AM
Mon, Jun 21
12:00 PM
Mon, Jun 21
1:00 PM
Mon, Jun 21
2:00 PM
Mon, Jun 21
3:00 PM
Mon, Jun 21
4:00 PM
Mon, Jun 21
5:00 PM
Condition
Clouds

Clouds

Clouds

Clouds

Clouds

Clouds

Clouds

Clouds

Clouds

Clouds

Clouds

Clouds

Clouds

Clouds

Clouds

Clouds

Clouds

Clouds

Clouds

Clouds

Clouds

Clouds

Clouds

Clouds

Clouds

Clouds

Clear

Clear

Rain

Rain

Rain

Rain

Rain

Clouds

Rain

Rain

Rain

Rain

Rain

Clouds

Clouds

Clouds

Rain

Rain

Rain

Rain

Clouds

Clouds
Temperature 87°F87°F86°F83°F80°F76°F72°F71°F70°F69°F69°F69°F69°F69°F73°F76°F79°F82°F84°F86°F87°F88°F88°F87°F85°F82°F80°F78°F76°F74°F73°F71°F71°F70°F68°F67°F65°F63°F62°F63°F64°F67°F63°F60°F59°F58°F60°F63°F
Feels Like 100°F100°F98°F91°F80°F78°F73°F72°F70°F70°F70°F70°F70°F70°F74°F77°F79°F86°F90°F93°F96°F97°F98°F97°F93°F88°F80°F79°F77°F75°F74°F73°F72°F71°F69°F68°F66°F63°F63°F63°F64°F67°F63°F60°F59°F58°F59°F62°F
Cloudiness 42%43%51%47%55%65%69%61%37%68%57%56%65%67%18%16%23%36%45%53%87%72%71%54%44%37%0%0%0%9%15%29%100%100%100%100%100%100%100%100%100%100%100%100%100%100%100%100%
Visibility 6 mi6 mi6 mi6 mi6 mi6 mi6 mi6 mi6 mi6 mi6 mi6 mi6 mi6 mi6 mi6 mi6 mi6 mi6 mi6 mi6 mi6 mi6 mi6 mi6 mi6 mi6 mi6 mi6 mi6 mi6 mi3 mi6 mi6 mi6 mi3 mi6 mi6 mi6 mi6 mi6 mi6 mi6 mi6 mi4 mi6 mi6 mi6 mi
Precipitation 0%0%0%0%0%0%0%0%0%0%0%0%0%0%0%0%0%0%0%0%0%0%0%0%0%0%9%26%26%61%73%96%94%80%100%100%100%100%67%64%52%47%61%93%99%96%75%74%
Humidity 74%76%77%79%84%88%90%88%87%86%85%84%84%85%82%78%75%70%67%65%65%65%66%68%72%74%77%78%82%86%90%96%95%96%96%97%95%93%92%87%85%78%85%89%92%92%86%82%
Dew Point 78°F79°F78°F76°F74°F72°F69°F67°F66°F65°F64°F64°F64°F65°F67°F68°F70°F71°F72°F73°F74°F74°F75°F75°F75°F73°F72°F70°F70°F69°F69°F70°F69°F68°F67°F66°F63°F61°F60°F59°F59°F59°F58°F57°F57°F56°F55°F57°F
Pressure 29.74"29.74"29.74"29.74"29.77"29.8"29.8"29.8"29.77"29.77"29.74"29.74"29.74"29.74"29.74"29.74"29.71"29.71"29.68"29.68"29.65"29.65"29.65"29.65"29.65"29.65"29.65"29.65"29.71"29.71"29.74"29.77"29.77"29.77"29.8"29.83"29.85"29.88"29.91"29.94"29.94"29.97"29.97"30"30.03"30.03"30"30"
Wind Speed 7.9 mph6.3 mph5.7 mph6.2 mph6.1 mph7.2 mph7.6 mph8.4 mph9.2 mph9.8 mph10.2 mph11 mph10.8 mph11.8 mph13.8 mph16.7 mph17.9 mph18.3 mph19 mph18.4 mph18 mph17.7 mph17.2 mph17 mph17.4 mph16.9 mph13.5 mph9.5 mph6.4 mph7.4 mph7.7 mph11.8 mph12.2 mph13 mph11.4 mph11.9 mph12.9 mph11.7 mph10.8 mph9.3 mph11.2 mph14.2 mph17.8 mph12.8 mph11 mph6.4 mph7.5 mph8 mph
Wind
Direction
253°
WSW
255°
WSW
247°
WSW
241°
WSW
217°
SW
214°
SW
203°
SSW
204°
SSW
196°
SSW
200°
SSW
193°
SSW
196°
SSW
202°
SSW
201°
SSW
200°
SSW
198°
SSW
207°
SSW
215°
SW
207°
SSW
208°
SSW
214°
SW
215°
SW
223°
SW
236°
SW
239°
WSW
227°
SW
226°
SW
222°
SW
233°
SW
248°
WSW
242°
WSW
296°
WNW
351°
N
14°
NNE

N
347°
NNW

N
15°
NNE
19°
NNE
26°
NNE
11°
N
356°
N
349°
N

N

N
25°
NNE
27°
NNE
11°
N

Daily Forecast

Date High Low Precip. Humidity
Today
Jun 19

Clouds
87 °F
71 °F
5%
66%
Sunday
Jun 20

Rain
88 °F
69 °F
61%
65%
Monday
Jun 21

Rain
73 °F
58 °F
100%
89%
Tuesday
Jun 22

Clear
75 °F
53 °F
0%
58%
Wednesday
Jun 23

Clear
82 °F
56 °F
0%
65%
Thursday
Jun 24

Clouds
88 °F
69 °F
14%
68%
Friday
Jun 25

Rain
83 °F
70 °F
100%
86%
Saturday
Jun 26

Clouds
75 °F
61 °F
25%
54%
Sunday
Jun 27

Clear
77 °F
57 °F
2%
57%
Monday
Jun 28

Rain
79 °F
64 °F
79%
74%
Tuesday
Jun 29

Rain
78 °F
68 °F
94%
91%
Wednesday
Jun 30

Rain
77 °F
67 °F
99%
89%
Thursday
Jul 1

Rain
79 °F
70 °F
100%
85%
Friday
Jul 2

Rain
87 °F
70 °F
100%
70%
Saturday
Jul 3

Rain
86 °F
76 °F
75%
71%
Sunday
Jul 4

Rain
87 °F
75 °F
100%
75%

Temperature 8-14 Day Outlook



Precipitation 8-14 Day Outlook




Quick Links
Stockton Lake News
Stockton Lake Photos
Stockton Lake Videos




About Us
Contact Us
Site Map
Search Site
Advertise With Us
   
Stockton.USLakes.info
THE STOCKTON LAKE WEBSITE

Copyright 2021, Lakes Online
Privacy    |    Legal